COSMOS 1275 DEB, 12719

Orbit data source: Space-Track

COSMOS 1275 DEB, 12719 is space debris in LEO originally from a launch on Thu, 04 Jun 1981 UTC launched from the Plesetsk Missile And Space Complex (PKMTR). Debris objects in space refer to the collection of defunct objects orbiting the Earth. Examples of debris include non-operational satellites, rocket bodies, and fragments generated from explosions, collisions, or faulty payload assembly.

Loading next visibility...
Identifier
12719, 1981-053BL
Orbit
LEO
Country
Flag of CISCIS
Related business
Manufacturer
Unknown
Mission
Spacecraft
Bus & Motor
Unknown
Mass
Unknown
Launch date (UTC)
1981-06-04 (44 years ago)
Launch vehicle
Unknown
Launch site
Plesetsk Missile And Space Complex (PKMTR)
Object type
Payload
Rocket body
Debris
Shape & HBR
Unknown shape, 0.2 m
Radar Cross Section
Medium (>0.1 m² and <1 m²)

Expand to show TLE details & history
Last TLE update: 13 hours ago

TLE from 13 hours ago
0 COSMOS 1275 DEB
1 12719U 81053BL  25302.53265828  .00000973  00000-0  72054-3 0  9998
2 12719  82.9612 216.4196 0020906 303.1158 240.3823 13.94184378237425
Epoch: 2025-10-29T12:47Z
TLE epoch observation values (Epoch: 2025-10-29T12:47:01.675Z)
Latitude
-3.40131°
Longitude
166.97645°
Altitude
924.996 km
Speed
7.385 km/s
True Right ascension
02h 27m 21s
True Declination
-3° 22' 53"
Sunlit
Object was in full shadow at epoch
Visualization orbit readout
Latitude
Unknown
Longitude
Unknown
Altitude
Unknown
Speed
Unknown
Apparent Right ascension
Unknown
Apparent Declination
Unknown
Sunlit
N/A
Visualization observer readout
Local Sidereal Time
21:27:28
Azimuth
Unknown
Elevation
Unknown
Doppler factor
Unknown
Orbital elements
Apogee altitude
926.364 km
Perigee altitude
895.886 km
Semi-major axis
7,289.262 km
Eccentricity
0.00209
Inclination
82.9612°
RAAN
216.4196°
Arg. of periapsis
303.1158°
True anomaly
240.17431°
Mean anomaly
240.3823°
Eccentric anomaly
240.27828°
Mean motion
3.48753 °/min
Orbital period
103.22 mins
BSTAR
0.00072054
Loading maneuver chart data...
Computing Atmospheric mass density...
Loading historical data...
Loading historical data...
Loading historical data...
Loading historical data...
Loading historical data...
Loading historical data...
Loading historical data...

Documentation

Showing up to 5 results
|